Location: Poughquag
(41.6090°N, 73.6820°W)
Time: 12:47:14
(UTC-04:00)

A-11 Canister half - Pass Details

Date: 30 May 2020
Orbit: 1527 x 1682 km, 47.3° (Epoch: 06 July)

Event Time Altitude Azimuth Distance (km) Brightness Sun altitude
Rises 10:53:48 0° 274° (W) 4,684 11.3 58.3°
Reaches altitude 10° 10:56:53 10° 277° (W) 3,711 10.8 58.8°
Maximum altitude 11:06:10 62° 358° (N) 1,724 10.0 60.3°
Drops below altitude 10° 11:15:45 10° 79° (E) 3,815 11.5 61.7°
Sets 11:18:58 0° 83° (E) 4,822 11.9 62.2°
